Ely, MN

5:19 AM CDT on May 20, 2018 (GMT -0500)
Ely Municipal

Weather History for KELO - January, 2012

Change the Weather History Date:

Saturday, January 28, 2012

  Actual Average Record
Temperature  
Mean Temperature 14 °F -  
Max Temperature 19 °F 20 °F 37 °F (2006)
Min Temperature 10 °F 0 °F -25 °F (2014)
Degree Days  
Heating Degree Days 50    
Moisture  
Dew Point 10 °F    
Average Humidity 81    
Maximum Humidity 92    
Minimum Humidity 63    
Precipitation  
Precipitation 0.00 in - - ()
Sea Level Pressure  
Sea Level Pressure 29.68 in    
Wind  
Wind Speed 9 mph (West)    
Max Wind Speed 20 mph    
Max Gust Speed 28 mph    
Visibility 7 miles    
Events Snow    
Averages and records for this station are not official NWS values.
T = Trace of Precipitation, MM = Missing Value Source: NWS Daily Summary

Daily Weather History Graph

Daily Weather History Graph

Search for Another Location

Airport or City:

Astronomy

Jan. 28, 2012 Rise Set
Actual Time 7:40 AM CST 5:00 PM CST
Civil Twilight 7:06 AM CST 5:34 PM CST
Nautical Twilight 6:28 AM CST 6:12 PM CST
Astronomical Twilight 5:52 AM CST 6:48 PM CST
Moon 9:33 AM CST (1/28) 11:21 PM CST (1/28)
Length of Visible Light 10h 28m
Length of Day
9h 20m
Waxing Crescent, 28% of the Moon is Illuminated
Jan 28
Waxing Crescent
Jan 30
First Quarter
Feb 7
Full
Feb 14
Last Quarter
Feb 21
New

Hourly Weather History & Observations

Time (CST) Temp. Windchill Dew Point Humidity Pressure Visibility Wind Dir Wind Speed Gust Speed Precip Events Conditions
12:12 AM 14.0 °F 3.9 °F 10.4 °F 86% 29.68 in 10.0 mi WSW 6.9 mph - N/A   Clear
12:33 AM 14.0 °F 3.9 °F 10.4 °F 86% 29.67 in 10.0 mi WSW 6.9 mph - N/A   Clear
12:53 AM 12.2 °F 2.9 °F 8.6 °F 85% 29.66 in 10.0 mi WSW 5.8 mph - N/A   Clear
1:12 AM 12.2 °F 2.9 °F 8.6 °F 85% 29.66 in 10.0 mi SW 5.8 mph - N/A   Clear
1:33 AM 10.4 °F 2.2 °F 8.6 °F 92% 29.66 in 10.0 mi WSW 4.6 mph - N/A   Clear
1:53 AM 10.4 °F 0.8 °F 8.6 °F 92% 29.66 in 10.0 mi SW 5.8 mph - N/A   Clear
2:12 AM 10.4 °F 0.8 °F 8.6 °F 92% 29.66 in 10.0 mi SW 5.8 mph - N/A   Clear
2:33 AM 10.4 °F 2.2 °F 8.6 °F 92% 29.66 in 10.0 mi WSW 4.6 mph - N/A   Clear
2:53 AM 10.4 °F 0.8 °F 8.6 °F 92% 29.66 in 10.0 mi WSW 5.8 mph - N/A   Mostly Cloudy
3:12 AM 12.2 °F 1.7 °F 8.6 °F 85% 29.65 in 10.0 mi WSW 6.9 mph - N/A   Overcast
3:33 AM 12.2 °F 2.9 °F 10.4 °F 92% 29.65 in 10.0 mi SW 5.8 mph - N/A   Overcast
3:52 AM 14.0 °F 2.9 °F 10.4 °F 86% 29.65 in 10.0 mi West 8.1 mph - N/A   Overcast
4:12 AM 14.0 °F 2.0 °F 10.4 °F 86% 29.66 in 10.0 mi West 9.2 mph - N/A   Overcast
4:33 AM 14.0 °F 2.9 °F 10.4 °F 86% 29.66 in 10.0 mi West 8.1 mph - N/A   Overcast
4:53 AM 12.2 °F -1.0 °F 10.4 °F 92% 29.66 in 10.0 mi West 10.4 mph - N/A   Overcast
5:12 AM 12.2 °F 0.7 °F 10.4 °F 92% 29.66 in 10.0 mi West 8.1 mph - N/A   Overcast
5:33 AM 12.2 °F 0.7 °F 10.4 °F 92% 29.66 in 7.0 mi West 8.1 mph 16.1 mph N/A Snow Light Snow
5:52 AM 12.2 °F 1.7 °F 10.4 °F 92% 29.66 in 5.0 mi West 6.9 mph - N/A Snow Light Snow
6:12 AM 12.2 °F -1.0 °F 10.4 °F 92% 29.66 in 5.0 mi West 10.4 mph 16.1 mph N/A Snow Light Snow
6:33 AM 12.2 °F 0.7 °F 10.4 °F 92% 29.66 in 3.0 mi West 8.1 mph - N/A Snow Light Snow
6:53 AM 12.2 °F -0.2 °F 10.4 °F 92% 29.66 in 3.0 mi West 9.2 mph - N/A Snow Light Snow
7:12 AM 12.2 °F -1.0 °F 10.4 °F 92% 29.66 in 7.0 mi West 10.4 mph - N/A Snow Light Snow
7:33 AM 12.2 °F -2.5 °F 10.4 °F 92% 29.67 in 7.0 mi West 12.7 mph 16.1 mph N/A Snow Light Snow
7:52 AM 12.2 °F -1.8 °F 10.4 °F 92% 29.67 in 4.0 mi West 11.5 mph 16.1 mph N/A Snow Light Snow
8:12 AM 14.0 °F 1.2 °F 10.4 °F 86% 29.67 in 2.0 mi West 10.4 mph - N/A Snow Light Snow
8:33 AM 14.0 °F 0.5 °F 10.4 °F 86% 29.66 in 1.5 mi West 11.5 mph 16.1 mph N/A Snow Light Snow
8:53 AM 15.8 °F 2.7 °F 12.2 °F 86% 29.66 in 2.0 mi West 11.5 mph 20.7 mph N/A Snow Light Snow
9:12 AM 15.8 °F 0.9 °F 12.2 °F 86% 29.67 in 3.0 mi West 15.0 mph 19.6 mph N/A Snow Light Snow
9:33 AM 15.8 °F 3.4 °F 12.2 °F 86% 29.67 in 2.5 mi West 10.4 mph 19.6 mph N/A Snow Light Snow
9:52 AM 15.8 °F 2.7 °F 12.2 °F 86% 29.68 in 2.0 mi West 11.5 mph 23.0 mph N/A Snow Light Snow
10:12 AM 17.6 °F 3.7 °F 12.2 °F 79% 29.68 in 1.2 mi WNW 13.8 mph 19.6 mph N/A Snow Light Snow
10:33 AM 17.6 °F 3.7 °F 12.2 °F 79% 29.69 in 1.5 mi WNW 13.8 mph 18.4 mph N/A Snow Light Snow
10:53 AM 17.6 °F 5.7 °F 12.2 °F 79% 29.69 in 1.0 mi NW 10.4 mph - N/A Snow Light Snow
11:13 AM 15.8 °F 0.9 °F 10.4 °F 79% 29.69 in 1.5 mi WNW 15.0 mph 21.9 mph N/A Snow Light Snow
11:32 AM 15.8 °F 2.7 °F 10.4 °F 79% 29.69 in 2.0 mi WNW 11.5 mph 19.6 mph N/A Snow Light Snow
11:53 AM 17.6 °F 5.7 °F 12.2 °F 79% 29.69 in 2.5 mi WNW 10.4 mph 16.1 mph N/A Snow Light Snow
12:13 PM 17.6 °F 6.4 °F 12.2 °F 79% 29.68 in 2.5 mi WNW 9.2 mph 17.3 mph N/A Snow Light Snow
12:33 PM 17.6 °F 3.7 °F 12.2 °F 79% 29.68 in 2.5 mi WNW 13.8 mph 19.6 mph N/A Snow Light Snow
12:53 PM 17.6 °F 3.7 °F 12.2 °F 79% 29.68 in 4.0 mi WNW 13.8 mph 17.3 mph N/A Snow Light Snow
1:12 PM 17.6 °F 4.3 °F 12.2 °F 79% 29.69 in 4.0 mi WNW 12.7 mph 19.6 mph N/A Snow Light Snow
1:32 PM 19.4 °F 5.0 °F 12.2 °F 74% 29.68 in 10.0 mi West 16.1 mph 20.7 mph N/A Snow Light Snow
1:53 PM 19.4 °F 6.0 °F 10.4 °F 68% 29.69 in 7.0 mi West 13.8 mph 24.2 mph N/A Snow Light Snow
2:12 PM 19.4 °F 6.6 °F 12.2 °F 74% 29.69 in 7.0 mi WNW 12.7 mph 17.3 mph N/A Snow Light Snow
2:32 PM 19.4 °F 6.0 °F 12.2 °F 74% 29.70 in 4.0 mi West 13.8 mph 25.3 mph N/A Snow Light Snow
2:53 PM 19.4 °F 7.2 °F 12.2 °F 74% 29.70 in 10.0 mi NW 11.5 mph 20.7 mph N/A Snow Light Snow
3:12 PM 19.4 °F 3.6 °F 10.4 °F 68% 29.71 in 10.0 mi WNW 19.6 mph 27.6 mph N/A   Overcast
3:33 PM 19.4 °F 6.0 °F 10.4 °F 68% 29.72 in 10.0 mi WNW 13.8 mph - N/A   Overcast
3:53 PM 19.4 °F 7.9 °F 8.6 °F 63% 29.73 in 10.0 mi WNW 10.4 mph 25.3 mph N/A   Overcast
4:12 PM 19.4 °F 6.0 °F 10.4 °F 68% 29.73 in 10.0 mi WNW 13.8 mph 20.7 mph N/A   Overcast
4:33 PM 19.4 °F 6.6 °F 8.6 °F 63% 29.74 in 10.0 mi WNW 12.7 mph 20.7 mph N/A   Overcast
4:53 PM 19.4 °F 7.2 °F 8.6 °F 63% 29.75 in 10.0 mi West 11.5 mph 19.6 mph N/A   Overcast
5:12 PM 19.4 °F 5.0 °F 8.6 °F 63% 29.75 in 10.0 mi WNW 16.1 mph 24.2 mph N/A   Overcast
5:33 PM 17.6 °F 5.7 °F 8.6 °F 68% 29.75 in 10.0 mi West 10.4 mph 23.0 mph N/A   Overcast
5:53 PM 19.4 °F 5.5 °F 8.6 °F 63% 29.75 in 10.0 mi West 15.0 mph 24.2 mph N/A   Overcast
6:12 PM 17.6 °F 4.3 °F 8.6 °F 68% 29.76 in 10.0 mi West 12.7 mph 23.0 mph N/A   Overcast
6:33 PM 17.6 °F 6.4 °F 8.6 °F 68% 29.76 in 10.0 mi WNW 9.2 mph - N/A   Overcast
6:53 PM 17.6 °F 5.0 °F 8.6 °F 68% 29.76 in 10.0 mi WNW 11.5 mph - N/A   Overcast
7:12 PM 17.6 °F 3.2 °F 8.6 °F 68% 29.77 in 10.0 mi WNW 15.0 mph 21.9 mph N/A   Overcast
7:33 PM 17.6 °F 3.2 °F 8.6 °F 68% 29.78 in 10.0 mi WNW 15.0 mph 19.6 mph N/A   Overcast
7:53 PM 17.6 °F 2.7 °F 6.8 °F 63% 29.78 in 10.0 mi WNW 16.1 mph 23.0 mph N/A   Overcast
8:12 PM 15.8 °F 1.4 °F 6.8 °F 68% 29.79 in 10.0 mi WNW 13.8 mph 19.6 mph N/A   Overcast
8:33 PM 15.8 °F 2.1 °F 6.8 °F 68% 29.79 in 10.0 mi WNW 12.7 mph 18.4 mph N/A   Mostly Cloudy
8:53 PM 14.0 °F 3.9 °F 6.8 °F 73% 29.79 in 10.0 mi WNW 6.9 mph - N/A   Scattered Clouds
9:12 PM 12.2 °F 2.9 °F 5.0 °F 73% 29.80 in 10.0 mi WNW 5.8 mph - N/A   Clear
9:33 PM 12.2 °F 1.7 °F 5.0 °F 73% 29.80 in 10.0 mi NW 6.9 mph - N/A   Scattered Clouds
9:53 PM 10.4 °F -0.4 °F 5.0 °F 79% 29.81 in 10.0 mi WNW 6.9 mph - N/A   Scattered Clouds
10:12 PM 10.4 °F -2.4 °F 3.2 °F 73% 29.81 in 10.0 mi NW 9.2 mph 16.1 mph N/A   Scattered Clouds
10:33 PM 10.4 °F -1.5 °F 5.0 °F 79% 29.81 in 10.0 mi WNW 8.1 mph - N/A   Overcast
10:53 PM 8.6 °F -3.7 °F 3.2 °F 79% 29.81 in 10.0 mi WNW 8.1 mph - N/A   Mostly Cloudy
11:12 PM 8.6 °F -2.6 °F 3.2 °F 79% 29.82 in 10.0 mi NW 6.9 mph - N/A   Mostly Cloudy
11:33 PM 8.6 °F -6.3 °F 3.2 °F 79% 29.82 in 10.0 mi WNW 11.5 mph 16.1 mph N/A   Overcast
11:53 PM 8.6 °F -4.7 °F 3.2 °F 79% 29.83 in 10.0 mi WNW 9.2 mph - N/A   Overcast